Погода в Ушарале

Казахстан     46°10′26″N   80°56′48″E
темп.,
°C
ветер,
м/с
пор.,
м/с
влажн.,
%
обл.,
%
осадки,
мм/ч
давл.,
гПа
погр.,
м
15 июня, вт
вт1500:00+15зюз33530 0.0 101529
03:00+13зюз22570 0.0 101426
06:00+14з23580 0.0 101546
09:00+21сз22430 0.0 1014543
12:00+25ссв32320 0.0 10131757
15:00+27св32270 0.0 10112091
18:00+26вюв32290 0.0 10101320
21:00+20ю33410 0.0 101012
16 июня, ср
ср1600:00+17ююв22440 0.0 101011
03:00+14ююв11560 0.0 101111
06:00+17вюв12560 0.0 101115
09:00+23всв33400 0.0 1011480
12:00+28в44250 0.0 10091042
15:00+30в3321100 0.0 10081180
18:00+29в2225100 0.0 1007508
21:00+22ююз1134100 0.0 100811
17 июня, чт
чт1700:00+20юв1137100 0.0 100811
03:00+18юз1146100 0.0 100811
06:00+19з1148100 0.0 100912
09:00+25сз223275 0.0 1009501
12:00+30ссз122497 0.0 10081167
15:00+31вюв1120100 0.0 10061818
18:00+31ююз2226100 0.0 1006617
21:00+25з2326100 0.0 100618
18 июня, пт
пт1800:00+23зюз3330100 0.0 100633
03:00+23юз2333100 0.0 100635
06:00+22з1141100 0.0 100614
09:00+27с1129100 0.0 1006520
12:00+31ссв122298 0.0 10042263
15:00+32в4422100 0.0 10032743
18:00+29ююв233044 0.0 1003281
21:00+24юз463890 0.0 100392
19 июня, сб
сб1900:00+20зюз225087 0.0 100421
03:00+18ю22500 0.0 100420
06:00+20ю114835 0.0 100412
09:00+26в2238100 0.1 1004413
12:00+32в2225100 0.1 1002914
15:00+35сз48164 0.0 9993726
18:00+25ююз9143794 0.1 1001357
21:00+22ююз33391 0.0 100129